GW5510 Weather Reports


Display with metric or nautical units.
time (UTC)temp
F
wind
direction
speed
MPH
gust
MPH
rain 1hr
in
rain 24hr
in
rain mn
in
humidity
%
barometer
mb
20260507225007 58 236 1.0 1.0 0.00 0.58 0.58 32 1017.3
20260507224502 59 2 3.0 4.0 0.00 0.58 0.58 29 1017.3
20260507223959 59 9 3.0 4.0 0.00 0.58 0.58 27 1017.5
20260507223454 60 291 0.0 1.0 0.00 0.58 0.58 29 1017.0
20260507222952 61 280 1.0 1.0 0.00 0.58 0.58 26 1017.0
20260507222449 60 236 1.0 1.0 0.00 0.58 0.58 31 1017.0
20260507221945 60 291 2.0 4.0 0.00 0.58 0.58 30 1017.2
20260507221442 59 258 1.0 3.0 0.00 0.58 0.58 32 1017.3
20260507220938 58 318 2.0 4.0 0.00 0.58 0.58 32 1017.5
20260507220436 58 255 0.0 1.0 0.00 0.58 0.58 30 1017.4
20260507215932 59 9 3.0 4.0 0.00 0.58 0.58 28 1017.3
20260507215429 58 252 1.0 1.0 0.00 0.58 0.58 33 1017.5
20260507214926 58 249 1.0 1.0 0.00 0.58 0.58 32 1017.5
20260507214424 58 240 3.0 4.0 0.00 0.58 0.58 30 1017.8
20260507213919 59 211 1.0 3.0 0.00 0.58 0.58 32 1017.8
20260507213416 59 227 1.0 1.0 0.00 0.58 0.58 30 1017.9
20260507212913 60 279 2.0 3.0 0.00 0.58 0.58 31 1017.4
20260507212409 63 234 2.0 3.0 0.00 0.58 0.58 31 1017.7
20260507211906 63 236 1.0 1.0 0.00 0.58 0.58 31 1017.8
20260507211402 62 246 0.0 0.0 0.00 0.58 0.58 33 1017.7
20260507210859 61 237 1.0 3.0 0.00 0.58 0.58 31 1017.9
20260507210356 61 8 2.0 4.0 0.00 0.58 0.58 33 1017.8
20260507205853 62 288 1.0 3.0 0.00 0.58 0.58 30 1017.9
20260507205349 61 232 0.0 0.0 0.00 0.58 0.58 33 1018.0
20260507204846 61 249 1.0 3.0 0.00 0.58 0.58 34 1017.9
20260507204343 60 309 1.0 3.0 0.00 0.58 0.58 34 1018.3
20260507203841 60 234 0.0 0.0 0.00 0.58 0.58 37 1018.3
20260507203339 59 244 0.0 0.0 0.00 0.58 0.58 37 1018.3
20260507202834 59 279 0.0 1.0 0.00 0.58 0.58 32 1018.4
20260507202331 59 254 0.0 1.0 0.00 0.58 0.58 40 1018.7
20260507201827 59 269 1.0 3.0 0.00 0.58 0.58 37 1018.9
20260507201322 58 222 2.0 3.0 0.00 0.58 0.58 38 1018.5
20260507200819 57 227 0.0 0.0 0.00 0.58 0.58 37 1018.9
20260507200315 58 268 1.0 1.0 0.00 0.58 0.58 40 1019.0
20260507195811 57 298 2.0 3.0 0.00 0.58 0.58 39 1018.8
20260507195309 57 246 0.0 1.0 0.00 0.58 0.58 43 1018.9
20260507194806 57 261 1.0 3.0 0.00 0.58 0.58 40 1018.8
20260507194302 57 251 0.0 1.0 0.00 0.58 0.58 44 1018.8
20260507193758 56 280 1.0 1.0 0.00 0.58 0.58 41 1019.0
20260507193255 56 246 1.0 1.0 0.00 0.58 0.58 41 1019.0
20260507192751 57 216 3.0 4.0 0.07 0.58 0.58 37 1019.0
20260507192248 55 232 0.0 1.0 0.07 0.58 0.58 42 1019.0
20260507191744 54 218 1.0 1.0 0.00 0.57 0.57 37 1019.0
20260507191241 53 227 0.0 0.0 0.00 0.57 0.57 45 1019.4
20260507190738 53 250 0.0 0.0 0.05 0.57 0.57 47 1019.5
20260507190237 53 240 0.0 1.0 0.05 0.57 0.57 44 1019.3
20260507185735 53 282 0.0 0.0 0.07 0.56 0.56 44 1019.4
20260507185231 55 344 2.0 4.0 0.12 0.56 0.56 41 1019.4
20260507184729 56 216 2.0 3.0 0.12 0.55 0.55 37 1019.7
20260507184227 53 213 2.0 3.0 0.07 0.54 0.54 43 1019.7
20260507183723 52 237 0.0 1.0 0.05 0.53 0.53 48 1019.7
20260507183220 53 256 0.0 1.0 0.05 0.53 0.53 47 1019.7
20260507182717 51 233 0.0 0.0 0.07 0.52 0.52 42 1019.7
20260507182212 52 225 0.0 0.0 0.07 0.52 0.52 45 1019.8
20260507181709 51 226 1.0 1.0 0.05 0.51 0.51 39 1019.9
20260507181206 50 237 0.0 1.0 0.05 0.51 0.51 44 1019.7
20260507180702 51 229 0.0 0.0 0.07 0.50 0.50 39 1019.5
20260507180159 53 222 0.0 0.0 0.12 0.50 0.50 46 1019.8
20260507175655 52 222 1.0 1.0 0.05 0.49 0.49 37 1019.4
20260507175152 53 220 0.0 0.0 0.07 0.48 0.48 42 1019.7
20260507174650 53 237 1.0 1.0 0.12 0.48 0.48 34 1019.4
20260507174148 53 234 0.0 1.0 0.12 0.47 0.47 34 1019.9
20260507173644 53 223 2.0 3.0 0.19 0.46 0.46 39 1019.9
20260507173141 53 226 0.0 1.0 0.19 0.45 0.45 40 1019.8
20260507172637 51 221 0.0 1.0 0.12 0.43 0.43 41 1019.9
20260507172130 51 301 1.0 1.0 2.50 0.42 0.42 45 1019.8
20260507171629 52 247 1.0 1.0 2.39 0.40 0.40 51 1020.3
20260507171127 52 300 1.0 3.0 0.00 0.00 0.00 40 1020.4
20260507170624 51 302 1.0 3.0 0.00 0.00 0.00 41 1020.3
20260507170121 51 305 2.0 3.0 0.00 0.00 0.00 41 1020.2
20260507165616 52 225 0.0 0.0 0.00 0.00 0.00 45 1020.2
20260507165113 51 296 1.0 3.0 0.00 0.00 0.00 41 1020.5
20260507164609 50 235 1.0 1.0 0.00 0.00 0.00 46 1020.3
20260507164106 51 256 0.0 1.0 0.00 0.00 0.00 51 1020.7
20260507163604 51 220 0.0 0.0 0.00 0.00 0.00 46 1020.5
20260507163102 50 211 0.0 0.0 0.00 0.00 0.00 50 1020.5
20260507162601 50 223 1.0 1.0 0.00 0.00 0.00 44 1020.5
20260507162059 49 222 1.0 1.0 0.00 0.00 0.00 48 1020.7
20260507161555 50 211 3.0 4.0 0.00 0.00 0.00 43 1020.7
20260507161052 50 228 3.0 4.0 0.00 0.00 0.00 44 1020.8
20260507160548 49 209 1.0 1.0 0.00 0.00 0.00 48 1020.5
20260507160044 49 215 1.0 1.0 0.00 0.00 0.00 47 1020.8
20260507155539 48 224 3.0 4.0 0.00 0.00 0.00 46 1020.8
20260507155037 48 215 1.0 3.0 0.00 0.00 0.00 47 1020.7
20260507154534 47 223 3.0 3.0 0.00 0.00 0.00 46 1020.5
20260507154031 47 230 1.0 3.0 0.00 0.00 0.00 49 1020.8
20260507153528 46 186 1.0 3.0 0.00 0.00 0.00 50 1021.0
20260507153024 46 212 1.0 1.0 0.00 0.00 0.00 50 1020.8
20260507152520 45 215 0.0 0.0 0.00 0.00 0.00 53 1020.9
20260507152016 45 219 2.0 3.0 0.00 0.00 0.00 50 1020.8
20260507151513 45 210 3.0 5.0 0.00 0.00 0.00 51 1020.7
20260507151010 44 209 3.0 4.0 0.00 0.00 0.00 50 1021.0
20260507150506 44 195 1.0 1.0 0.00 0.00 0.00 52 1020.8
20260507150003 44 212 2.0 3.0 0.00 0.00 0.00 52 1020.7
20260507145458 44 189 2.0 4.0 0.00 0.00 0.00 52 1020.8
20260507144956 43 216 2.0 3.0 0.00 0.00 0.00 51 1020.5
20260507144452 43 212 2.0 3.0 0.00 0.00 0.00 53 1020.7
20260507143949 42 215 2.0 3.0 0.00 0.00 0.00 55 1020.8
20260507143447 42 215 0.0 1.0 0.00 0.00 0.00 57 1020.9
20260507142943 42 158 0.0 0.0 0.00 0.00 0.00 57 1020.5
20260507142439 41 214 1.0 1.0 0.00 0.00 0.00 62 1020.8
20260507141937 40 216 0.0 0.0 0.00 0.00 0.00 63 1020.7
20260507141432 40 242 0.0 0.0 0.00 0.00 0.00 61 1020.7
20260507140929 40 200 2.0 4.0 0.00 0.00 0.00 54 1020.7
20260507140425 40 194 1.0 1.0 0.00 0.00 0.00 55 1020.5
20260507135924 40 169 2.0 3.0 0.00 0.00 0.00 55 1020.7
20260507135420 40 180 1.0 3.0 0.00 0.00 0.00 54 1020.5
20260507134918 39 192 2.0 3.0 0.00 0.00 0.00 54 1020.7
20260507134414 39 210 1.0 3.0 0.00 0.00 0.00 54 1020.5
20260507133910 39 216 0.0 1.0 0.00 0.00 0.00 54 1020.4
20260507133406 39 210 1.0 1.0 0.00 0.00 0.00 54 1020.4
20260507132905 38 210 1.0 1.0 0.00 0.00 0.00 53 1020.3
20260507132401 38 172 1.0 1.0 0.00 0.00 0.00 53 1020.2
20260507131858 37 172 0.0 0.0 0.00 0.00 0.00 53 1020.3
20260507131355 37 172 0.0 0.0 0.00 0.00 0.00 57 1020.4
20260507130852 35 172 0.0 0.0 0.00 0.00 0.00 59 1020.3
20260507130348 35 172 0.0 0.0 0.00 0.00 0.00 63 1020.2
20260507125847 36 172 0.0 0.0 0.00 0.00 0.00 60 1020.3
20260507125344 36 172 0.0 0.0 0.00 0.00 0.00 58 1020.3
20260507124842 35 172 0.0 0.0 0.00 0.00 0.00 57 1020.2
20260507124338 35 172 0.0 0.0 0.00 0.00 0.00 59 1020.2
20260507123837 35 172 0.0 0.0 0.00 0.00 0.00 60 1020.3
20260507123333 33 172 0.0 0.0 0.00 0.00 0.00 65 1020.0
20260507122829 33 172 0.0 0.0 0.00 0.00 0.00 66 1020.2
20260507122325 33 172 0.0 0.0 0.00 0.00 0.00 61 1019.8
20260507121822 33 171 0.0 0.0 0.00 0.00 0.00 66 1020.0
20260507121317 33 172 0.0 0.0 0.00 0.00 0.00 62 1019.9
20260507120814 33 171 0.0 0.0 0.00 0.00 0.00 65 1020.2
20260507120310 32 171 0.0 0.0 0.00 0.00 0.00 67 1020.0
20260507115806 31 171 0.0 0.0 0.00 0.00 0.00 68 1020.2
20260507115306 32 171 0.0 0.0 0.00 0.00 0.00 68 1019.8
20260507114758 33 171 0.0 0.0 0.00 0.00 0.00 66 1020.2
20260507114256 34 171 0.0 0.0 0.00 0.00 0.00 58 1020.0
20260507113753 34 171 0.0 0.0 0.00 0.00 0.00 59 1020.3
20260507113249 33 171 0.0 0.0 0.00 0.00 0.00 62 1020.2
20260507112747 33 171 0.0 0.0 0.00 0.00 0.00 66 1019.9
20260507112244 32 171 0.0 0.0 0.00 0.00 0.00 63 1019.9
20260507111742 32 171 0.0 0.0 0.00 0.00 0.00 64 1020.3
20260507111238 32 171 0.0 0.0 0.00 0.00 0.00 65 1020.3
20260507110734 29 171 0.0 0.0 0.00 0.00 0.00 72 1020.2
20260507110231 28 171 0.0 0.0 0.00 0.00 0.00 77 1019.9
20260507105728 28 171 0.0 0.0 0.00 0.00 0.00 77 1020.2
20260507105224 28 171 0.0 0.0 0.00 0.00 0.00 77 1020.2
20260507104722 28 171 0.0 0.0 0.00 0.00 0.00 77 1020.0
20260507104218 29 171 0.0 0.0 0.00 0.00 0.00 75 1019.9
20260507103714 29 171 0.0 0.0 0.00 0.00 0.00 73 1019.9
20260507103210 30 171 0.0 0.0 0.00 0.00 0.00 74 1020.2
20260507102707 31 171 0.0 0.0 0.00 0.00 0.00 69 1020.2
20260507102204 31 171 0.0 0.0 0.00 0.00 0.00 67 1019.9
20260507101700 29 171 0.0 0.0 0.00 0.00 0.00 72 1020.0
20260507101155 29 171 0.0 0.0 0.00 0.00 0.00 75 1020.2
20260507100653 28 171 0.0 0.0 0.00 0.00 0.00 76 1019.9
20260507100151 28 171 0.0 0.0 0.00 0.00 0.00 77 1020.3
20260507095648 28 171 0.0 0.0 0.00 0.00 0.00 79 1020.3
20260507095145 28 171 0.0 0.0 0.00 0.00 0.00 78 1020.2
20260507094641 28 171 0.0 0.0 0.00 0.00 0.00 78 1020.4
20260507094138 28 171 0.0 0.0 0.00 0.00 0.00 78 1020.0
20260507093635 28 171 0.0 0.0 0.00 0.00 0.00 77 1020.0
20260507093134 28 171 0.0 0.0 0.00 0.00 0.00 76 1020.2
20260507092631 29 171 0.0 0.0 0.00 0.00 0.00 75 1020.2
20260507092127 30 171 0.0 0.0 0.00 0.00 0.00 74 1020.4
20260507091624 28 171 0.0 0.0 0.00 0.00 0.00 77 1020.3
20260507091119 28 171 0.0 0.0 0.00 0.00 0.00 77 1020.0
20260507090615 28 171 0.0 0.0 0.00 0.00 0.00 76 1020.4
20260507090113 28 171 0.0 0.0 0.00 0.00 0.00 79 1020.5
20260507085610 28 171 0.0 0.0 0.00 0.00 0.00 79 1020.2
20260507085106 27 171 0.0 0.0 0.00 0.00 0.00 80 1020.7
20260507084603 27 171 0.0 0.0 0.00 0.00 0.00 80 1020.4
20260507084100 28 171 0.0 0.0 0.00 0.00 0.00 79 1020.5
20260507083556 28 171 0.0 0.0 0.00 0.00 0.00 78 1020.4
20260507083053 29 171 0.0 0.0 0.00 0.00 0.00 76 1020.2
20260507082549 30 171 0.0 0.0 0.00 0.00 0.00 74 1020.5
20260507082046 30 171 0.0 0.0 0.00 0.00 0.00 71 1020.8
20260507081542 30 171 0.0 0.0 0.00 0.00 0.00 71 1020.4
20260507081040 30 171 0.0 0.0 0.00 0.00 0.00 73 1020.7
20260507080535 29 171 0.0 0.0 0.00 0.00 0.00 79 1020.8
20260507080032 28 171 0.0 0.0 0.00 0.00 0.00 85 1020.4
20260507075527 27 171 0.0 0.0 0.00 0.00 0.00 87 1020.4
20260507075024 27 171 0.0 0.0 0.00 0.00 0.00 88 1020.5
20260507074520 26 171 0.0 0.0 0.00 0.00 0.00 89 1020.7
20260507074019 26 171 0.0 0.0 0.00 0.00 0.00 90 1020.7
20260507073515 26 171 0.0 0.0 0.00 0.00 0.00 90 1020.9
20260507073012 26 171 0.0 0.0 0.00 0.00 0.00 91 1020.5
20260507072509 26 171 0.0 0.0 0.00 0.00 0.00 91 1020.8
20260507072006 26 171 0.0 0.0 0.00 0.00 0.00 92 1020.7
20260507071504 26 171 0.0 0.0 0.00 0.00 0.00 92 1020.8
20260507071000 26 171 0.0 0.0 0.00 0.00 0.00 92 1020.9
20260507070457 26 171 0.0 0.0 0.00 0.00 0.00 92 1020.8
20260507065954 26 171 0.0 0.0 0.00 0.00 0.00 92 1020.9
20260507065451 26 171 0.0 0.0 0.00 0.00 0.00 92 1020.9
20260507064948 26 171 0.0 0.0 0.00 0.00 0.00 92 1020.7
20260507064446 26 171 0.0 0.0 0.00 0.00 0.00 92 1020.9
20260507063943 26 171 0.0 0.0 0.00 0.00 0.00 92 1020.9
20260507063440 26 171 0.0 0.0 0.00 0.00 0.00 92 1021.2
20260507062937 27 171 0.0 0.0 0.00 0.00 0.00 92 1020.9
20260507062434 27 171 0.0 0.0 0.00 0.00 0.00 92 1021.0
20260507061932 27 171 0.0 0.0 0.00 0.00 0.00 92 1020.9
20260507061430 28 171 0.0 0.0 0.00 0.00 0.00 92 1020.9
20260507060928 28 171 0.0 0.0 0.00 0.00 0.00 92 1020.9
20260507060424 28 171 0.0 0.0 0.00 0.00 0.00 92 1020.8
20260507055922 28 171 0.0 0.0 0.00 0.00 0.00 92 1021.0
20260507055417 28 171 0.0 0.0 0.00 0.00 0.00 92 1020.5
20260507054914 28 171 0.0 0.0 0.00 0.00 0.00 92 1020.8
20260507054409 28 171 0.0 0.0 0.00 0.00 0.00 92 1020.5
20260507053907 28 171 0.0 0.0 0.00 0.00 0.00 92 1020.5
20260507053404 28 171 0.0 0.0 0.00 0.00 0.00 92 1020.9
20260507052903 28 171 0.0 0.0 0.00 0.00 0.00 92 1020.5
20260507052400 28 171 0.0 0.0 0.00 0.00 0.00 91 1020.4
20260507051857 27 171 0.0 0.0 0.00 0.00 0.00 91 1020.8
20260507051355 27 171 0.0 0.0 0.00 0.00 0.00 91 1020.5
20260507050851 27 171 0.0 0.0 0.00 0.00 0.00 91 1020.4
20260507050348 27 171 0.0 0.0 0.00 0.00 0.00 91 1020.3
20260507045845 27 171 0.0 0.0 0.00 0.00 0.00 91 1020.4
20260507045341 27 171 0.0 0.0 0.00 0.00 0.00 91 1020.3
20260507044838 27 171 0.0 0.0 0.00 0.00 0.00 91 1020.5
20260507044335 27 171 0.0 0.0 0.00 0.00 0.00 91 1020.4
20260507043831 28 171 0.0 0.0 0.00 0.00 0.00 91 1020.4
20260507043327 28 171 0.0 0.0 0.00 0.00 0.00 91 1020.3
20260507042824 28 171 0.0 0.0 0.00 0.00 0.00 90 1020.5
20260507042319 28 171 0.0 0.0 0.00 0.00 0.00 90 1020.5
20260507041817 28 171 0.0 0.0 0.00 0.00 0.00 90 1020.4
20260507041313 28 171 0.0 0.0 0.00 0.00 0.00 90 1020.3
20260507040811 28 171 0.0 0.0 0.00 0.00 0.00 90 1020.4
20260507040306 28 171 0.0 0.0 0.00 0.00 0.00 90 1020.3
20260507035802 28 171 0.0 0.0 0.00 0.00 0.00 90 1020.4
20260507035258 28 171 0.0 0.0 0.00 0.00 0.00 90 1020.3
20260507034756 28 171 0.0 0.0 0.00 0.00 0.00 90 1020.4
20260507034252 28 171 0.0 0.0 0.00 0.00 0.00 90 1020.4
20260507033751 28 171 0.0 0.0 0.00 0.00 0.00 89 1020.4
20260507033248 29 171 0.0 0.0 0.00 0.00 0.00 89 1020.3
20260507032745 29 171 0.0 0.0 0.00 0.00 0.00 89 1020.4
20260507032241 29 171 0.0 0.0 0.00 0.00 0.00 89 1020.2
20260507031738 29 171 0.0 0.0 0.00 0.00 0.00 89 1020.3
20260507031235 29 171 0.0 0.0 0.00 0.00 0.00 89 1020.0
20260507030731 29 171 0.0 0.0 0.00 0.00 0.00 89 1020.0
20260507030229 29 171 0.0 0.0 0.00 0.00 0.00 89 1019.9
20260507025726 29 171 0.0 0.0 0.00 0.00 0.00 88 1020.3
20260507025223 29 171 0.0 0.0 0.00 0.00 0.00 88 1020.0
20260507024721 30 171 0.0 0.0 0.00 0.00 0.00 88 1019.8
20260507024218 30 171 0.0 0.0 0.00 0.00 0.00 88 1019.8
20260507023713 30 171 0.0 0.0 0.00 0.00 0.00 88 1019.9
20260507023211 30 171 0.0 0.0 0.00 0.00 0.00 87 1019.8
20260507022708 30 170 0.0 0.0 0.00 0.00 0.00 87 1019.8
20260507022204 30 170 0.0 0.0 0.00 0.00 0.00 87 1019.8
20260507021700 30 170 0.0 0.0 0.00 0.00 0.00 87 1019.5
20260507021155 30 170 0.0 0.0 0.00 0.00 0.00 86 1019.5
20260507020654 31 170 0.0 0.0 0.00 0.00 0.00 86 1019.7
20260507020150 31 170 0.0 0.0 0.00 0.00 0.00 86 1019.5
20260507015648 31 170 0.0 0.0 0.00 0.00 0.00 85 1019.4
20260507015145 31 170 0.0 0.0 0.00 0.00 0.00 85 1019.4
20260507014642 32 170 0.0 0.0 0.00 0.00 0.00 85 1019.4
20260507014138 32 170 0.0 0.0 0.00 0.00 0.00 85 1019.4
20260507013635 32 181 0.0 0.0 0.00 0.00 0.00 85 1019.7
20260507013132 32 196 0.0 0.0 0.00 0.00 0.00 84 1019.5
20260507012629 32 213 0.0 0.0 0.00 0.00 0.00 84 1019.5
20260507012124 33 173 0.0 0.0 0.00 0.00 0.00 84 1019.4
20260507011623 33 202 0.0 0.0 0.00 0.00 0.00 85 1019.3
20260507011119 33 191 0.0 0.0 0.00 0.00 0.00 84 1019.3
20260507010614 33 212 0.0 0.0 0.00 0.00 0.00 84 1019.4
20260507010110 33 204 0.0 0.0 0.00 0.00 0.00 84 1019.2
20260507005608 33 208 0.0 0.0 0.00 0.00 0.00 84 1019.2
20260507005103 33 192 0.0 0.0 0.00 0.00 0.00 83 1019.0
20260507004601 33 201 0.0 0.0 0.00 0.00 0.00 83 1019.2
20260507004058 33 200 0.0 0.0 0.00 0.00 0.00 84 1018.9
20260507003554 33 205 0.0 0.0 0.00 0.00 0.00 85 1019.2
20260507003049 33 184 0.0 0.0 0.00 0.00 0.00 83 1019.2
20260507002546 33 174 0.0 0.0 0.00 0.00 0.00 83 1019.0
20260507002042 33 212 0.0 0.0 0.00 0.00 0.00 83 1019.3
20260507001538 33 195 0.0 0.0 0.00 0.00 0.00 84 1019.3
20260507001036 33 173 0.0 0.0 0.00 0.00 0.00 83 1019.4
20260507000532 33 197 0.0 0.0 0.00 0.00 0.00 83 1019.4
20260507000028 33 215 0.0 0.0 0.00 0.00 0.00 82 1019.2
20260506235525 34 174 0.0 0.0 0.00 0.00 0.00 82 1019.3
20260506235021 34 191 0.0 0.0 0.00 0.00 0.00 83 1019.3
20260506234519 34 201 0.0 0.0 0.00 0.00 0.00 85 1019.4
20260506234016 33 197 0.0 0.0 0.00 0.00 0.00 86 1019.2
20260506233512 33 298 0.0 0.0 0.00 0.00 0.00 85 1019.3
20260506233009 32 299 0.0 0.0 0.00 0.00 0.00 85 1019.2
20260506232505 32 299 0.0 0.0 0.00 0.00 0.00 86 1019.2
20260506232001 32 299 0.0 0.0 0.00 0.00 0.00 86 1019.3
20260506231458 32 299 0.0 0.0 0.00 0.00 0.00 85 1019.0
20260506230956 32 300 0.0 0.0 0.00 0.00 0.00 86 1019.3
20260506230452 32 300 0.0 0.0 0.00 0.00 0.00 86 1019.0
20260506225949 32 300 0.0 0.0 0.00 0.00 0.00 88 1018.9
20260506225446 32 301 0.0 0.0 0.00 0.00 0.00 89 1019.3